Location: Taukkyan
(23.1052°N, 94.0030°E)
Time: 23:12:24
(UTC+00:00)

GPS 2-15 Rocket1 - Pass Details

Date: 06 July 2020
Orbit: 624 x 675 km, 19.8° (Epoch: 05 August)

Event Time Altitude Azimuth Distance (km) Brightness Sun altitude
Rises 14:25:25 0° 268° (W) 3,002 7.3 -22.6°
Reaches altitude 10° 14:27:55 10° 261° (W) 2,091 6.3 -23.1°
Enters shadow 14:32:03 39° 207° (SSW) 1,002 3.9 -23.8°
